Datum;Stunden;Zählung;Temperatur (°C);Min. Temperatur (°C);Max. Temperatur (°C);Windstärke (km/h);Regen (mm);Schnee (mm);Wetter
01.01.2018;00:00;11;8;-;-;32;;;wolkig
01.01.2018;01:00;9;8;-;-;37;;;wolkig
01.01.2018;02:00;12;7;-;-;41;;;Klarer Himmel
01.01.2018;03:00;8;8;-;-;37;;;wolkig
01.01.2018;04:00;7;8;-;-;43;;;teilweise bewölkt
01.01.2018;05:00;3;7;-;-;37;;;teilweise bewölkt
01.01.2018;06:00;5;7;-;-;37;;;teilweise bewölkt
01.01.2018;07:00;5;7;-;-;32;;;teilweise bewölkt
01.01.2018;08:00;4;7;-;-;32;;;wolkig
01.01.2018;09:00;3;6;-;-;41;;;Regen
01.01.2018;10:00;6;7;-;-;22;;;wolkig
01.01.2018;11:00;14;8;-;-;26;;;wolkig
01.01.2018;12:00;24;9;-;-;32;;;teilweise bewölkt
01.01.2018;13:00;24;8;-;-;24;;;wolkig
01.01.2018;14:00;23;8;-;-;22;;;wolkig
01.01.2018;15:00;30;8;-;-;22;;;Regen
01.01.2018;16:00;19;7;-;-;19;;;Regen
01.01.2018;17:00;11;6;-;-;15;;;Regen
01.01.2018;18:00;9;6;-;-;19;;;Regen
01.01.2018;19:00;9;6;-;-;9;;;Regen
01.01.2018;20:00;8;6;-;-;13;;;Regen
01.01.2018;21:00;10;5;-;-;11;;;Regen
01.01.2018;22:00;2;5;-;-;20;;;Regen
01.01.2018;23:00;0;5;-;-;28;;;Regen
02.01.2018;00:00;3;5;-;-;15;;;Regen
02.01.2018;01:00;0;5;-;-;17;;;wolkig
02.01.2018;02:00;0;5;-;-;19;;;wolkig
02.01.2018;03:00;1;5;-;-;15;;;wolkig
02.01.2018;04:00;2;5;-;-;19;;;Regen
02.01.2018;05:00;5;5;-;-;17;;;Regen
02.01.2018;06:00;14;5;-;-;17;;;teilweise bewölkt
02.01.2018;07:00;38;6;-;-;19;;;wolkig
02.01.2018;08:00;56;6;-;-;20;;;Regen
02.01.2018;09:00;49;6;-;-;22;;;wolkig
02.01.2018;10:00;30;6;-;-;19;;;wolkig
02.01.2018;11:00;39;6;-;-;20;;;Regen
02.01.2018;12:00;54;6;-;-;19;;;Regen
02.01.2018;13:00;50;7;-;-;19;;;wolkig
02.01.2018;14:00;51;6;-;-;17;;;wolkig
02.01.2018;15:00;55;6;-;-;19;;;wolkig
02.01.2018;16:00;63;6;-;-;17;;;wolkig
02.01.2018;17:00;72;7;-;-;22;;;wolkig
02.01.2018;18:00;71;7;-;-;22;;;Regen
02.01.2018;19:00;32;6;-;-;24;;;Regen
02.01.2018;20:00;35;6;-;-;32;;;Regen
02.01.2018;21:00;15;6;-;-;33;;;Regen
02.01.2018;22:00;11;6;-;-;30;;;Regen
02.01.2018;23:00;6;7;-;-;26;;;Regen
03.01.2018;00:00;5;7;-;-;26;;;Regen
03.01.2018;01:00;1;8;-;-;30;;;Regen
03.01.2018;02:00;1;8;-;-;30;;;Regen
03.01.2018;03:00;1;8;-;-;33;;;Regen
03.01.2018;04:00;0;10;-;-;30;;;Regen
03.01.2018;05:00;4;10;-;-;41;;;Regen
03.01.2018;06:00;20;10;-;-;35;;;Regen
03.01.2018;07:00;43;10;-;-;28;;;Regen
03.01.2018;08:00;50;6;-;-;35;;;wolkig
03.01.2018;09:00;44;8;-;-;30;;;teilweise bewölkt
03.01.2018;10:00;15;8;-;-;44;;;wolkig
03.01.2018;11:00;34;8;-;-;46;;;Regen
03.01.2018;12:00;34;7;-;-;44;;;Regen
03.01.2018;13:00;49;7;-;-;46;;;Regen
03.01.2018;14:00;33;8;-;-;43;;;Regen
03.01.2018;15:00;25;8;-;-;39;;;Regen
03.01.2018;16:00;42;7;-;-;41;;;Regen
03.01.2018;17:00;49;8;-;-;41;;;wolkig
03.01.2018;18:00;55;8;-;-;33;;;Regen
03.01.2018;19:00;40;8;-;-;33;;;Regen
03.01.2018;20:00;26;7;-;-;37;;;wolkig
03.01.2018;21:00;9;7;-;-;32;;;Regen
03.01.2018;22:00;6;;-;-;;;;
03.01.2018;23:00;9;;-;-;;;;
04.01.2018;00:00;4;;-;-;;;;
04.01.2018;01:00;0;;-;-;;;;
04.01.2018;02:00;0;;-;-;;;;
04.01.2018;03:00;1;;-;-;;;;
04.01.2018;04:00;0;;-;-;;;;
04.01.2018;05:00;8;7;-;-;24;;;wolkig
04.01.2018;06:00;22;8;-;-;28;;;wolkig
04.01.2018;07:00;49;7;-;-;20;;;wolkig
04.01.2018;08:00;73;7;-;-;22;;;Klarer Himmel
04.01.2018;09:00;64;7;-;-;20;;;wolkig
04.01.2018;10:00;30;8;-;-;17;;;wolkig
04.01.2018;11:00;19;7;-;-;17;;;Regen
04.01.2018;12:00;40;7;-;-;17;;;Regen
04.01.2018;13:00;40;8;-;-;15;;;Regen
04.01.2018;14:00;35;8;-;-;22;;;Regen
04.01.2018;15:00;40;8;-;-;19;;;Regen
04.01.2018;16:00;41;10;-;-;19;;;wolkig
04.01.2018;17:00;72;11;-;-;26;;;wolkig
04.01.2018;18:00;68;11;-;-;32;;;wolkig
04.01.2018;19:00;66;11;-;-;32;;;wolkig
04.01.2018;20:00;29;11;-;-;39;;;Regen
04.01.2018;21:00;15;10;-;-;48;;;wolkig
04.01.2018;22:00;9;9;-;-;30;;;wolkig
04.01.2018;23:00;9;9;-;-;32;;;wolkig
05.01.2018;00:00;5;8;-;-;35;;;wolkig
05.01.2018;01:00;0;8;-;-;32;;;wolkig
05.01.2018;02:00;0;8;-;-;28;;;wolkig
05.01.2018;03:00;2;8;-;-;28;;;wolkig
05.01.2018;04:00;0;8;-;-;24;;;Regen
05.01.2018;05:00;4;7;-;-;24;;;wolkig
05.01.2018;06:00;24;8;-;-;37;;;wolkig
05.01.2018;07:00;54;9;-;-;24;;;Regen
05.01.2018;08:00;74;8;-;-;26;;;wolkig
05.01.2018;09:00;70;8;-;-;19;;;wolkig
05.01.2018;10:00;57;9;-;-;20;;;wolkig
05.01.2018;11:00;46;9;-;-;15;;;wolkig
05.01.2018;12:00;55;9;-;-;19;;;wolkig
05.01.2018;13:00;75;9;-;-;17;;;wolkig
05.01.2018;14:00;69;9;-;-;15;;;wolkig
05.01.2018;15:00;84;9;-;-;19;;;wolkig
05.01.2018;16:00;82;9;-;-;13;;;wolkig
05.01.2018;17:00;85;9;-;-;20;;;wolkig
05.01.2018;18:00;80;9;-;-;20;;;wolkig
05.01.2018;19:00;50;9;-;-;24;;;wolkig
05.01.2018;20:00;33;8;-;-;22;;;Klarer Himmel
05.01.2018;21:00;26;5;-;-;15;;;Klarer Himmel
05.01.2018;22:00;16;6;-;-;15;;;Klarer Himmel
05.01.2018;23:00;20;6;-;-;15;;;Klarer Himmel
06.01.2018;00:00;16;5;-;-;17;;;Klarer Himmel
06.01.2018;01:00;3;5;-;-;15;;;Klarer Himmel
06.01.2018;02:00;4;4;-;-;15;;;Klarer Himmel
06.01.2018;03:00;3;4;-;-;19;;;Klarer Himmel
06.01.2018;04:00;2;3;-;-;15;;;Klarer Himmel
06.01.2018;05:00;4;4;-;-;13;;;Klarer Himmel
06.01.2018;06:00;5;4;-;-;13;;;Klarer Himmel
06.01.2018;07:00;6;3;-;-;11;;;Klarer Himmel
06.01.2018;08:00;18;4;-;-;9;;;Klarer Himmel
06.01.2018;09:00;29;3;-;-;6;;;Klarer Himmel
06.01.2018;10:00;26;6;-;-;6;;;Klarer Himmel
06.01.2018;11:00;58;6;-;-;9;;;Klarer Himmel
06.01.2018;12:00;71;7;-;-;4;;;Klarer Himmel
06.01.2018;13:00;59;7;-;-;4;;;Klarer Himmel
06.01.2018;14:00;55;7;-;-;2;;;Klarer Himmel
06.01.2018;15:00;58;7;-;-;9;;;Klarer Himmel
06.01.2018;16:00;54;6;-;-;7;;;Klarer Himmel
06.01.2018;17:00;46;6;-;-;11;;;Klarer Himmel
06.01.2018;18:00;34;6;-;-;13;;;Klarer Himmel
06.01.2018;19:00;40;6;-;-;9;;;Klarer Himmel
06.01.2018;20:00;24;6;-;-;13;;;Klarer Himmel
06.01.2018;21:00;25;6;-;-;17;;;wolkig
06.01.2018;22:00;20;6;-;-;17;;;wolkig
06.01.2018;23:00;11;6;-;-;17;;;wolkig
07.01.2018;00:00;16;5;-;-;22;;;Regen
07.01.2018;01:00;12;4;-;-;20;;;wolkig
07.01.2018;02:00;6;4;-;-;20;;;Regen
07.01.2018;03:00;3;4;-;-;20;;;wolkig
07.01.2018;04:00;2;4;-;-;19;;;wolkig
07.01.2018;05:00;2;4;-;-;22;;;wolkig
07.01.2018;06:00;3;4;-;-;26;;;wolkig
07.01.2018;07:00;3;4;-;-;24;;;wolkig
07.01.2018;08:00;3;4;-;-;24;;;wolkig
07.01.2018;09:00;14;3;-;-;22;;;wolkig
07.01.2018;10:00;32;3;-;-;20;;;wolkig
07.01.2018;11:00;39;3;-;-;22;;;wolkig
07.01.2018;12:00;44;3;-;-;22;;;wolkig
07.01.2018;13:00;70;3;-;-;28;;;wolkig
07.01.2018;14:00;61;3;-;-;24;;;teilweise bewölkt
07.01.2018;15:00;84;3;-;-;20;;;teilweise bewölkt
07.01.2018;16:00;100;3;-;-;22;;;wolkig
07.01.2018;17:00;64;3;-;-;19;;;wolkig
07.01.2018;18:00;50;3;-;-;28;;;wolkig
07.01.2018;19:00;29;2;-;-;24;;;wolkig
07.01.2018;20:00;17;2;-;-;22;;;wolkig
07.01.2018;21:00;11;2;-;-;28;;;wolkig
07.01.2018;22:00;7;2;-;-;24;;;wolkig
07.01.2018;23:00;6;2;-;-;24;;;wolkig
08.01.2018;00:00;1;2;-;-;22;;;wolkig
08.01.2018;01:00;4;2;-;-;24;;;wolkig
08.01.2018;02:00;1;2;-;-;22;;;wolkig
08.01.2018;03:00;0;2;-;-;22;;;wolkig
08.01.2018;04:00;1;2;-;-;28;;;wolkig
08.01.2018;05:00;5;2;-;-;32;;;wolkig
08.01.2018;06:00;34;2;-;-;33;;;wolkig
08.01.2018;07:00;87;2;-;-;32;;;wolkig
08.01.2018;08:00;155;3;-;-;17;;;wolkig
08.01.2018;09:00;75;3;-;-;20;;;wolkig
08.01.2018;10:00;46;3;-;-;22;;;wolkig
08.01.2018;11:00;42;3;-;-;19;;;wolkig
08.01.2018;12:00;60;5;-;-;17;;;wolkig
08.01.2018;13:00;61;5;-;-;17;;;wolkig
08.01.2018;14:00;70;6;-;-;17;;;Klarer Himmel
08.01.2018;15:00;105;5;-;-;19;;;Klarer Himmel
08.01.2018;16:00;110;4;-;-;17;;;Klarer Himmel
08.01.2018;17:00;99;3;-;-;17;;;Klarer Himmel
08.01.2018;18:00;117;3;-;-;17;;;Klarer Himmel
08.01.2018;19:00;77;2;-;-;17;;;Klarer Himmel
08.01.2018;20:00;44;1;-;-;15;;;Klarer Himmel
08.01.2018;21:00;27;2;-;-;13;;;Klarer Himmel
08.01.2018;22:00;16;1;-;-;11;;;Klarer Himmel
08.01.2018;23:00;7;1;-;-;11;;;Klarer Himmel
09.01.2018;00:00;9;1;-;-;11;;;teilweise bewölkt
09.01.2018;01:00;3;1;-;-;13;;;teilweise bewölkt
09.01.2018;02:00;1;1;-;-;13;;;teilweise bewölkt
09.01.2018;03:00;0;0;-;-;11;;;teilweise bewölkt
09.01.2018;04:00;1;0;-;-;11;;;Klarer Himmel
09.01.2018;05:00;5;0;-;-;9;;;Klarer Himmel
09.01.2018;06:00;41;1;-;-;11;;;Klarer Himmel
09.01.2018;07:00;89;0;-;-;11;;;Klarer Himmel
09.01.2018;08:00;162;-1;-;-;7;;;wolkig
09.01.2018;09:00;97;3;-;-;7;;;wolkig
09.01.2018;10:00;71;5;-;-;13;;;wolkig
09.01.2018;11:00;63;6;-;-;17;;;wolkig
09.01.2018;12:00;52;6;-;-;22;;;wolkig
09.01.2018;13:00;57;7;-;-;17;;;wolkig
09.01.2018;14:00;55;7;-;-;24;;;wolkig
09.01.2018;15:00;90;7;-;-;20;;;Klarer Himmel
09.01.2018;16:00;121;7;-;-;15;;;Klarer Himmel
09.01.2018;17:00;119;7;-;-;20;;;Klarer Himmel
09.01.2018;18:00;95;6;-;-;19;;;Klarer Himmel
09.01.2018;19:00;86;6;-;-;15;;;Klarer Himmel
09.01.2018;20:00;50;6;-;-;19;;;Klarer Himmel
09.01.2018;21:00;32;6;-;-;17;;;wolkig
09.01.2018;22:00;20;7;-;-;17;;;wolkig
09.01.2018;23:00;17;7;-;-;19;;;wolkig
10.01.2018;00:00;4;7;-;-;17;;;teilweise bewölkt
10.01.2018;01:00;1;7;-;-;17;;;Regen
10.01.2018;02:00;2;7;-;-;15;;;teilweise bewölkt
10.01.2018;03:00;3;8;-;-;19;;;wolkig
10.01.2018;04:00;1;7;-;-;17;;;wolkig
10.01.2018;05:00;6;8;-;-;17;;;wolkig
10.01.2018;06:00;24;8;-;-;19;;;wolkig
10.01.2018;07:00;85;8;-;-;19;;;Regen
10.01.2018;08:00;110;8;-;-;17;;;Regen
10.01.2018;09:00;87;8;-;-;17;;;wolkig
10.01.2018;10:00;54;8;-;-;19;;;wolkig
10.01.2018;11:00;46;9;-;-;17;;;Klarer Himmel
10.01.2018;12:00;54;9;-;-;20;;;Klarer Himmel
10.01.2018;13:00;59;9;-;-;20;;;wolkig
10.01.2018;14:00;77;10;-;-;22;;;wolkig
10.01.2018;15:00;88;9;-;-;15;;;wolkig
10.01.2018;16:00;113;9;-;-;13;;;wolkig
10.01.2018;17:00;107;9;-;-;11;;;wolkig
10.01.2018;18:00;116;9;-;-;11;;;wolkig
10.01.2018;19:00;69;9;-;-;11;;;Regen
10.01.2018;20:00;51;8;-;-;9;;;wolkig
10.01.2018;21:00;25;8;-;-;13;;;wolkig
10.01.2018;22:00;34;8;-;-;9;;;wolkig
10.01.2018;23:00;22;7;-;-;11;;;Regen
11.01.2018;00:00;5;7;-;-;9;;;Regen
11.01.2018;01:00;4;7;-;-;7;;;wolkig
11.01.2018;02:00;1;5;-;-;7;;;wolkig
11.01.2018;03:00;1;6;-;-;9;;;wolkig
11.01.2018;04:00;1;6;-;-;9;;;wolkig
11.01.2018;05:00;5;6;-;-;6;;;wolkig
11.01.2018;06:00;23;6;-;-;2;;;Nebel
11.01.2018;07:00;82;5;-;-;2;;;wolkig
11.01.2018;08:00;163;5;-;-;4;;;wolkig
11.01.2018;09:00;85;6;-;-;4;;;wolkig
11.01.2018;10:00;42;7;-;-;4;;;wolkig
11.01.2018;11:00;56;8;-;-;9;;;wolkig
11.01.2018;12:00;56;9;-;-;4;;;wolkig
11.01.2018;13:00;60;9;-;-;9;;;wolkig
11.01.2018;14:00;71;8;-;-;7;;;wolkig
11.01.2018;15:00;87;8;-;-;6;;;wolkig
11.01.2018;16:00;108;8;-;-;6;;;wolkig
11.01.2018;17:00;99;8;-;-;6;;;wolkig
11.01.2018;18:00;111;7;-;-;6;;;wolkig
11.01.2018;19:00;70;7;-;-;6;;;wolkig
11.01.2018;20:00;63;6;-;-;6;;;wolkig
11.01.2018;21:00;36;5;-;-;4;;;Nebel
11.01.2018;22:00;28;5;-;-;4;;;Nebel
11.01.2018;23:00;21;6;-;-;6;;;wolkig
12.01.2018;00:00;11;5;-;-;6;;;wolkig
12.01.2018;01:00;1;5;-;-;6;;;Nebel
12.01.2018;02:00;1;4;-;-;7;;;Nebel
12.01.2018;03:00;0;4;-;-;4;;;wolkig
12.01.2018;04:00;0;4;-;-;6;;;Nebel
12.01.2018;05:00;5;4;-;-;6;;;Nebel
12.01.2018;06:00;25;4;-;-;4;;;Nebel
12.01.2018;07:00;73;4;-;-;4;;;Nebel
12.01.2018;08:00;142;4;-;-;6;;;Nebel
12.01.2018;09:00;93;4;-;-;4;;;Nebel
12.01.2018;10:00;69;4;-;-;4;;;wolkig
12.01.2018;11:00;72;4;-;-;6;;;wolkig
12.01.2018;12:00;90;5;-;-;4;;;wolkig
12.01.2018;13:00;81;5;-;-;4;;;wolkig
12.01.2018;14:00;105;5;-;-;2;;;Regen
12.01.2018;15:00;100;5;-;-;2;;;wolkig
12.01.2018;16:00;106;5;-;-;4;;;Regen
12.01.2018;17:00;91;5;-;-;4;;;Regen
12.01.2018;18:00;89;5;-;-;6;;;wolkig
12.01.2018;19:00;51;5;-;-;4;;;Regen
12.01.2018;20:00;48;5;-;-;4;;;wolkig
12.01.2018;21:00;17;5;-;-;2;;;wolkig
12.01.2018;22:00;28;5;-;-;4;;;wolkig
12.01.2018;23:00;24;5;-;-;2;;;wolkig
13.01.2018;00:00;11;5;-;-;4;;;wolkig
13.01.2018;01:00;8;5;-;-;6;;;wolkig
13.01.2018;02:00;4;5;-;-;4;;;Nebel
13.01.2018;03:00;3;4;-;-;4;;;Nebel
13.01.2018;04:00;4;3;-;-;7;;;wolkig
13.01.2018;05:00;4;4;-;-;4;;;wolkig
13.01.2018;06:00;1;4;-;-;4;;;wolkig
13.01.2018;07:00;6;3;-;-;7;;;wolkig
13.01.2018;08:00;19;6;-;-;15;;;wolkig
13.01.2018;09:00;29;6;-;-;17;;;wolkig
13.01.2018;10:00;34;6;-;-;24;;;wolkig
13.01.2018;11:00;44;6;-;-;26;;;wolkig
13.01.2018;12:00;62;6;-;-;28;;;wolkig
13.01.2018;13:00;72;7;-;-;19;;;wolkig
13.01.2018;14:00;72;7;-;-;19;;;wolkig
13.01.2018;15:00;55;7;-;-;17;;;wolkig
13.01.2018;16:00;41;6;-;-;15;;;wolkig
13.01.2018;17:00;48;5;-;-;13;;;teilweise bewölkt
13.01.2018;18:00;37;1;-;-;15;;;teilweise bewölkt
13.01.2018;19:00;18;2;-;-;13;;;teilweise bewölkt
13.01.2018;20:00;18;3;-;-;11;;;wolkig
13.01.2018;21:00;8;4;-;-;9;;;wolkig
13.01.2018;22:00;11;5;-;-;13;;;wolkig
13.01.2018;23:00;12;5;-;-;15;;;wolkig
14.01.2018;00:00;6;5;-;-;19;;;wolkig
14.01.2018;01:00;6;5;-;-;15;;;wolkig
14.01.2018;02:00;4;5;-;-;17;;;wolkig
14.01.2018;03:00;3;4;-;-;20;;;wolkig
14.01.2018;04:00;2;4;-;-;17;;;wolkig
14.01.2018;05:00;4;4;-;-;19;;;wolkig
14.01.2018;06:00;5;4;-;-;13;;;wolkig
14.01.2018;07:00;2;4;-;-;19;;;wolkig
14.01.2018;08:00;13;3;-;-;19;;;wolkig
14.01.2018;09:00;21;3;-;-;17;;;wolkig
14.01.2018;10:00;27;4;-;-;19;;;teilweise bewölkt
14.01.2018;11:00;39;4;-;-;22;;;teilweise bewölkt
14.01.2018;12:00;51;5;-;-;22;;;teilweise bewölkt
14.01.2018;13:00;66;5;-;-;30;;;teilweise bewölkt
14.01.2018;14:00;63;5;-;-;22;;;teilweise bewölkt
14.01.2018;15:00;80;4;-;-;26;;;teilweise bewölkt
14.01.2018;16:00;54;3;-;-;15;;;teilweise bewölkt
14.01.2018;17:00;35;3;-;-;20;;;teilweise bewölkt
14.01.2018;18:00;36;3;-;-;20;;;Klarer Himmel
14.01.2018;19:00;17;3;-;-;22;;;Klarer Himmel
14.01.2018;20:00;11;3;-;-;20;;;Klarer Himmel
14.01.2018;21:00;11;2;-;-;24;;;Klarer Himmel
14.01.2018;22:00;14;2;-;-;26;;;Klarer Himmel
14.01.2018;23:00;12;2;-;-;28;;;Klarer Himmel
15.01.2018;00:00;2;2;-;-;26;;;teilweise bewölkt
15.01.2018;01:00;0;2;-;-;26;;;wolkig
15.01.2018;02:00;0;2;-;-;26;;;teilweise bewölkt
15.01.2018;03:00;1;3;-;-;24;;;wolkig
15.01.2018;04:00;1;3;-;-;24;;;wolkig
15.01.2018;05:00;5;4;-;-;22;;;wolkig
15.01.2018;06:00;26;4;-;-;20;;;wolkig
15.01.2018;07:00;79;3;-;-;24;;;teilweise bewölkt
15.01.2018;08:00;132;3;-;-;28;;;Klarer Himmel
15.01.2018;09:00;85;4;-;-;28;;;wolkig
15.01.2018;10:00;60;5;-;-;24;;;wolkig
15.01.2018;11:00;37;6;-;-;26;;;wolkig
15.01.2018;12:00;56;6;-;-;32;;;Regen
15.01.2018;13:00;55;6;-;-;32;;;Regen
15.01.2018;14:00;55;7;-;-;28;;;Regen
15.01.2018;15:00;53;6;-;-;37;;;Regen
15.01.2018;16:00;82;6;-;-;33;;;Regen
15.01.2018;17:00;71;6;-;-;37;;;Regen
15.01.2018;18:00;76;6;-;-;35;;;Regen
15.01.2018;19:00;56;6;-;-;33;;;wolkig
15.01.2018;20:00;26;7;-;-;22;;;Regen
15.01.2018;21:00;21;7;-;-;37;;;Regen
15.01.2018;22:00;7;7;-;-;30;;;Regen
15.01.2018;23:00;12;7;-;-;24;;;Regen
16.01.2018;00:00;9;7;-;-;26;;;wolkig
16.01.2018;01:00;2;7;-;-;26;;;Regen
16.01.2018;02:00;1;6;-;-;22;;;wolkig
16.01.2018;03:00;0;6;-;-;24;;;wolkig
16.01.2018;04:00;3;6;-;-;32;;;Regen
16.01.2018;05:00;7;6;-;-;28;;;teilweise bewölkt
16.01.2018;06:00;27;6;-;-;28;;;teilweise bewölkt
16.01.2018;07:00;73;7;-;-;26;;;teilweise bewölkt
16.01.2018;08:00;109;7;-;-;24;;;wolkig
16.01.2018;09:00;78;7;-;-;37;;;teilweise bewölkt
16.01.2018;10:00;43;5;-;-;44;;;Gewitter
16.01.2018;11:00;23;4;-;-;24;;;Regen
16.01.2018;12:00;26;4;-;-;17;;;Regen
16.01.2018;13:00;35;4;-;-;19;;;Regen
16.01.2018;14:00;98;4;-;-;15;;;teilweise bewölkt
16.01.2018;15:00;54;4;-;-;41;;;Regen
16.01.2018;16:00;73;4;-;-;32;;;Regen
16.01.2018;17:00;96;3;-;-;26;;;teilweise bewölkt
16.01.2018;18:00;76;1;-;-;17;;;teilweise bewölkt
16.01.2018;19:00;65;2;-;-;17;;;teilweise bewölkt
16.01.2018;20:00;31;2;-;-;20;;;Klarer Himmel
16.01.2018;21:00;34;2;-;-;17;;;teilweise bewölkt
16.01.2018;22:00;20;2;-;-;19;;;Klarer Himmel
16.01.2018;23:00;9;3;-;-;20;;;wolkig
17.01.2018;00:00;7;3;-;-;15;;;teilweise bewölkt
17.01.2018;01:00;1;3;-;-;20;;;wolkig
17.01.2018;02:00;1;4;-;-;35;;;Gewitter
17.01.2018;03:00;2;2;-;-;30;;;Schnee
17.01.2018;04:00;1;3;-;-;17;;;wolkig
17.01.2018;05:00;2;2;-;-;28;;;Schnee
17.01.2018;06:00;20;2;-;-;24;;;wolkig
17.01.2018;07:00;65;2;-;-;28;;;Schnee
17.01.2018;08:00;99;2;-;-;28;;;teilweise bewölkt
17.01.2018;09:00;67;2;-;-;30;;;teilweise bewölkt
17.01.2018;10:00;26;3;-;-;32;;;teilweise bewölkt
17.01.2018;11:00;32;3;-;-;30;;;Regen
17.01.2018;12:00;38;3;-;-;37;;;Regen
17.01.2018;13:00;34;4;-;-;30;;;wolkig
17.01.2018;14:00;45;3;-;-;44;;;Regen
17.01.2018;15:00;47;3;-;-;33;;;teilweise bewölkt
17.01.2018;16:00;56;4;-;-;24;;;Regen
17.01.2018;17:00;60;4;-;-;24;;;teilweise bewölkt
17.01.2018;18:00;73;4;-;-;28;;;Klarer Himmel
17.01.2018;19:00;60;3;-;-;20;;;Klarer Himmel
17.01.2018;20:00;39;4;-;-;24;;;teilweise bewölkt
17.01.2018;21:00;28;3;-;-;20;;;teilweise bewölkt
17.01.2018;22:00;11;4;-;-;22;;;wolkig
17.01.2018;23:00;13;3;-;-;24;;;Klarer Himmel
18.01.2018;00:00;3;3;-;-;20;;;Klarer Himmel
18.01.2018;01:00;2;4;-;-;24;;;Klarer Himmel
18.01.2018;02:00;0;4;-;-;26;;;Klarer Himmel
18.01.2018;03:00;0;5;-;-;32;;;Regen
18.01.2018;04:00;1;4;-;-;28;;;Regen
18.01.2018;05:00;1;3;-;-;39;;;Regen
18.01.2018;06:00;13;4;-;-;32;;;Regen
18.01.2018;07:00;39;7;-;-;52;;;Regen
18.01.2018;08:00;73;8;-;-;50;;;Regen
18.01.2018;09:00;58;10;-;-;46;;;wolkig
18.01.2018;10:00;48;11;-;-;57;;;wolkig
18.01.2018;11:00;17;8;-;-;83;;;wolkig
18.01.2018;12:00;29;6;-;-;56;;;Regen
18.01.2018;13:00;32;6;-;-;41;;;Regen
18.01.2018;14:00;53;5;-;-;32;;;Regen
18.01.2018;15:00;39;6;-;-;39;;;wolkig
18.01.2018;16:00;56;6;-;-;28;;;Regen
18.01.2018;17:00;60;5;-;-;15;;;Regen
18.01.2018;18:00;95;5;-;-;9;;;Regen
18.01.2018;19:00;49;4;-;-;6;;;teilweise bewölkt
18.01.2018;20:00;17;2;-;-;7;;;teilweise bewölkt
18.01.2018;21:00;33;2;-;-;13;;;wolkig
18.01.2018;22:00;9;2;-;-;7;;;wolkig
18.01.2018;23:00;17;2;-;-;7;;;wolkig
19.01.2018;00:00;1;3;-;-;13;;;wolkig
19.01.2018;01:00;1;3;-;-;15;;;wolkig
19.01.2018;02:00;1;3;-;-;20;;;Regen
19.01.2018;03:00;0;2;-;-;17;;;wolkig
19.01.2018;04:00;1;3;-;-;20;;;Regen
19.01.2018;05:00;4;3;-;-;22;;;Regen
19.01.2018;06:00;18;3;-;-;22;;;Regen
19.01.2018;07:00;45;3;-;-;11;;;wolkig
19.01.2018;08:00;105;3;-;-;24;;;Regen
19.01.2018;09:00;84;3;-;-;20;;;teilweise bewölkt
19.01.2018;10:00;57;4;-;-;20;;;teilweise bewölkt
19.01.2018;11:00;57;4;-;-;20;;;wolkig
19.01.2018;12:00;68;5;-;-;22;;;teilweise bewölkt
19.01.2018;13:00;84;5;-;-;22;;;wolkig
19.01.2018;14:00;81;5;-;-;26;;;wolkig
19.01.2018;15:00;84;4;-;-;11;;;teilweise bewölkt
19.01.2018;16:00;97;2;-;-;15;;;teilweise bewölkt
19.01.2018;17:00;88;1;-;-;17;;;teilweise bewölkt
19.01.2018;18:00;63;2;-;-;19;;;teilweise bewölkt
19.01.2018;19:00;44;3;-;-;19;;;wolkig
19.01.2018;20:00;43;3;-;-;19;;;wolkig
19.01.2018;21:00;23;3;-;-;17;;;teilweise bewölkt
19.01.2018;22:00;23;2;-;-;19;;;Klarer Himmel
19.01.2018;23:00;7;2;-;-;19;;;teilweise bewölkt
20.01.2018;00:00;19;2;-;-;19;;;wolkig
20.01.2018;01:00;11;2;-;-;11;;;Schnee
20.01.2018;02:00;4;1;-;-;9;;;wolkig
20.01.2018;03:00;3;3;-;-;20;;;wolkig
20.01.2018;04:00;2;2;-;-;15;;;teilweise bewölkt
20.01.2018;05:00;3;1;-;-;15;;;teilweise bewölkt
20.01.2018;06:00;5;2;-;-;17;;;wolkig
20.01.2018;07:00;2;2;-;-;15;;;teilweise bewölkt
20.01.2018;08:00;14;3;-;-;15;;;wolkig
20.01.2018;09:00;24;3;-;-;15;;;wolkig
20.01.2018;10:00;38;4;-;-;15;;;wolkig
20.01.2018;11:00;40;4;-;-;15;;;wolkig
20.01.2018;12:00;44;4;-;-;19;;;Regen
20.01.2018;13:00;24;3;-;-;15;;;Regen
20.01.2018;14:00;40;3;-;-;13;;;Regen
20.01.2018;15:00;17;3;-;-;11;;;Regen
20.01.2018;16:00;17;3;-;-;11;;;Regen
20.01.2018;17:00;25;3;-;-;11;;;Regen
20.01.2018;18:00;25;3;-;-;7;;;Regen
20.01.2018;19:00;24;3;-;-;4;;;Regen
20.01.2018;20:00;28;3;-;-;4;;;Regen
20.01.2018;21:00;10;3;-;-;7;;;Regen
20.01.2018;22:00;17;3;-;-;7;;;wolkig
20.01.2018;23:00;8;3;-;-;9;;;Regen
21.01.2018;00:00;16;3;-;-;13;;;Regen
21.01.2018;01:00;5;3;-;-;15;;;Regen
21.01.2018;02:00;5;2;-;-;13;;;Regen
21.01.2018;03:00;3;2;-;-;13;;;wolkig
21.01.2018;04:00;1;2;-;-;11;;;wolkig
21.01.2018;05:00;1;2;-;-;15;;;teilweise bewölkt
21.01.2018;06:00;3;2;-;-;13;;;teilweise bewölkt
21.01.2018;07:00;2;2;-;-;13;;;wolkig
21.01.2018;08:00;4;2;-;-;15;;;wolkig
21.01.2018;09:00;18;2;-;-;13;;;wolkig
21.01.2018;10:00;28;3;-;-;11;;;wolkig
21.01.2018;11:00;43;4;-;-;9;;;Regen
21.01.2018;12:00;46;5;-;-;13;;;wolkig
21.01.2018;13:00;43;5;-;-;13;;;teilweise bewölkt
21.01.2018;14:00;37;5;-;-;15;;;wolkig
21.01.2018;15:00;49;5;-;-;9;;;wolkig
21.01.2018;16:00;35;4;-;-;11;;;wolkig
21.01.2018;17:00;30;2;-;-;13;;;Klarer Himmel
21.01.2018;18:00;26;3;-;-;11;;;Klarer Himmel
21.01.2018;19:00;20;3;-;-;13;;;Klarer Himmel
21.01.2018;20:00;10;3;-;-;15;;;Klarer Himmel
21.01.2018;21:00;9;3;-;-;19;;;Klarer Himmel
21.01.2018;22:00;12;3;-;-;22;;;wolkig
21.01.2018;23:00;7;3;-;-;26;;;Regen
22.01.2018;00:00;1;2;-;-;26;;;Regen
22.01.2018;01:00;2;2;-;-;28;;;Regen
22.01.2018;02:00;0;2;-;-;32;;;Regen
22.01.2018;03:00;0;2;-;-;26;;;Regen
22.01.2018;04:00;1;3;-;-;22;;;Regen
22.01.2018;05:00;2;3;-;-;24;;;Regen
22.01.2018;06:00;18;3;-;-;26;;;Regen
22.01.2018;07:00;53;3;-;-;19;;;Regen
22.01.2018;08:00;120;4;-;-;15;;;wolkig
22.01.2018;09:00;73;5;-;-;13;;;wolkig
22.01.2018;10:00;38;7;-;-;7;;;wolkig
22.01.2018;11:00;33;8;-;-;15;;;wolkig
22.01.2018;12:00;59;8;-;-;17;;;wolkig
22.01.2018;13:00;58;8;-;-;15;;;wolkig
22.01.2018;14:00;60;8;-;-;13;;;wolkig
22.01.2018;15:00;62;8;-;-;13;;;wolkig
22.01.2018;16:00;87;8;-;-;11;;;wolkig
22.01.2018;17:00;82;8;-;-;13;;;Regen
22.01.2018;18:00;78;8;-;-;13;;;wolkig
22.01.2018;19:00;67;8;-;-;17;;;wolkig
22.01.2018;20:00;28;7;-;-;19;;;wolkig
22.01.2018;21:00;35;7;-;-;17;;;wolkig
22.01.2018;22:00;15;7;-;-;15;;;wolkig
22.01.2018;23:00;19;7;-;-;13;;;Regen
23.01.2018;00:00;10;6;-;-;13;;;Regen
23.01.2018;01:00;1;6;-;-;15;;;wolkig
23.01.2018;02:00;0;6;-;-;11;;;Regen
23.01.2018;03:00;0;6;-;-;13;;;Regen
23.01.2018;04:00;1;5;-;-;11;;;Regen
23.01.2018;05:00;9;5;-;-;13;;;wolkig
23.01.2018;06:00;28;6;-;-;19;;;wolkig
23.01.2018;07:00;99;6;-;-;13;;;wolkig
23.01.2018;08:00;143;7;-;-;17;;;wolkig
23.01.2018;09:00;73;7;-;-;17;;;wolkig
23.01.2018;10:00;55;7;-;-;17;;;wolkig
23.01.2018;11:00;55;8;-;-;17;;;wolkig
23.01.2018;12:00;52;8;-;-;20;;;wolkig
23.01.2018;13:00;54;9;-;-;26;;;wolkig
23.01.2018;14:00;66;9;-;-;20;;;teilweise bewölkt
23.01.2018;15:00;65;9;-;-;22;;;wolkig
23.01.2018;16:00;88;9;-;-;26;;;Regen
23.01.2018;17:00;107;9;-;-;24;;;wolkig
23.01.2018;18:00;103;9;-;-;24;;;Regen
23.01.2018;19:00;91;9;-;-;26;;;wolkig
23.01.2018;20:00;46;9;-;-;17;;;wolkig
23.01.2018;21:00;35;10;-;-;24;;;wolkig
23.01.2018;22:00;26;10;-;-;26;;;wolkig
23.01.2018;23:00;10;11;-;-;24;;;wolkig
24.01.2018;00:00;9;11;-;-;26;;;wolkig
24.01.2018;01:00;2;11;-;-;24;;;wolkig
24.01.2018;02:00;0;11;-;-;22;;;wolkig
24.01.2018;03:00;1;12;-;-;26;;;wolkig
24.01.2018;04:00;2;12;-;-;24;;;wolkig
24.01.2018;05:00;10;12;-;-;20;;;wolkig
24.01.2018;06:00;24;12;-;-;24;;;wolkig
24.01.2018;07:00;109;12;-;-;24;;;wolkig
24.01.2018;08:00;157;12;-;-;24;;;wolkig
24.01.2018;09:00;76;12;-;-;24;;;wolkig
24.01.2018;10:00;63;12;-;-;26;;;wolkig
24.01.2018;11:00;56;14;-;-;22;;;wolkig
24.01.2018;12:00;54;14;-;-;26;;;wolkig
24.01.2018;13:00;68;14;-;-;30;;;wolkig
24.01.2018;14:00;73;14;-;-;37;;;wolkig
24.01.2018;15:00;80;14;-;-;39;;;wolkig
24.01.2018;16:00;106;13;-;-;33;;;wolkig
24.01.2018;17:00;117;13;-;-;43;;;wolkig
24.01.2018;18:00;109;13;-;-;35;;;wolkig
24.01.2018;19:00;74;13;-;-;32;;;Klarer Himmel
24.01.2018;20:00;52;13;-;-;28;;;wolkig
24.01.2018;21:00;30;12;-;-;33;;;wolkig
24.01.2018;22:00;26;12;-;-;32;;;wolkig
24.01.2018;23:00;28;12;-;-;33;;;wolkig
25.01.2018;00:00;7;12;-;-;33;;;Regen
25.01.2018;01:00;1;9;-;-;20;;;Regen
25.01.2018;02:00;1;8;-;-;19;;;Regen
25.01.2018;03:00;1;8;-;-;15;;;Regen
25.01.2018;04:00;1;8;-;-;19;;;Regen
25.01.2018;05:00;6;8;-;-;17;;;wolkig
25.01.2018;06:00;21;7;-;-;15;;;wolkig
25.01.2018;07:00;77;7;-;-;15;;;wolkig
25.01.2018;08:00;141;8;-;-;13;;;wolkig
25.01.2018;09:00;85;8;-;-;15;;;wolkig
25.01.2018;10:00;47;9;-;-;17;;;wolkig
25.01.2018;11:00;42;9;-;-;19;;;wolkig
25.01.2018;12:00;52;10;-;-;15;;;wolkig
25.01.2018;13:00;70;10;-;-;17;;;wolkig
25.01.2018;14:00;59;10;-;-;17;;;wolkig